EW2869 Osimo IT current weather conditions

sailwx.info

Wind from 247 at 1 knots gusting 6

Air temperature 27.8° C
Dewpoint 16.1° C

Last reported at 2020-Aug-05 15:03 UTC.
Time now 2020-Aug-05 15:59 UTC

Location: N 43°31' E 013°30'.
View on Google Maps.

See reports from other nearby stations

  
Tides and Currents Weather Stations Pressure Air Temp Water Temp Dewpoint Dewpoint Depression Visibility Wind Speed Wind Dir Waves Ship Positions
date/time (UTC)wind fromknots sea level pressurealtimeterstation pressurevisibilityair tempwater tempwave heightnotes
2020-Aug-05 15:03 247 1 gusting 6 27.8
2020-Aug-05 15:00 250 1 gusting 6 27.8
2020-Aug-05 14:54 250 1 gusting 6 27.8
2020-Aug-05 14:48 239 0 gusting 6 27.8
2020-Aug-05 14:45 233 1 gusting 6 27.8
2020-Aug-05 14:39 247 1 gusting 6 27.2
2020-Aug-05 14:33 284 1 gusting 7 27.8
2020-Aug-05 14:30 265 2 gusting 7 27.8
2020-Aug-05 14:24 276 1 gusting 12 27.2
2020-Aug-05 14:18 318 3 gusting 12 27.2
2020-Aug-05 14:15 295 3 gusting 12 27.2
2020-Aug-05 14:09 280 3 gusting 10 26.7
2020-Aug-05 14:03 253 2 gusting 10 27.2
2020-Aug-05 14:00 196 2 gusting 7 27.2
2020-Aug-05 13:54 205 1 gusting 7 27.2
2020-Aug-05 13:48 211 3 gusting 9 27.2
2020-Aug-05 13:45 216 2 gusting 9 26.7
2020-Aug-05 13:39 297 1 gusting 8 26.7
2020-Aug-05 13:33 302 5 gusting 9 27.2
2020-Aug-05 13:30 299 5 gusting 9 27.2
2020-Aug-05 13:24 314 2 gusting 7 27.2
2020-Aug-05 13:18 305 3 gusting 7 26.7
2020-Aug-05 13:15 289 2 gusting 8 26.7
2020-Aug-05 13:09 286 1 gusting 8 26.7
2020-Aug-05 13:03 310 1 gusting 9 26.7
2020-Aug-05 13:00 301 1 gusting 9 26.1
2020-Aug-05 12:54 292 2 gusting 9 26.7
2020-Aug-05 12:48 271 2 gusting 9 26.7
2020-Aug-05 12:45 288 2 gusting 9 26.7
2020-Aug-05 12:39 231 4 gusting 9 26.1
2020-Aug-05 12:33 200 2 gusting 11 26.7
2020-Aug-05 12:30 255 2 gusting 11 26.7
2020-Aug-05 12:24 294 3 gusting 11 26.1
2020-Aug-05 12:18 276 3 gusting 10 26.1
2020-Aug-05 12:15 271 3 gusting 9 26.7
2020-Aug-05 12:09 279 1 gusting 12 26.7
2020-Aug-05 12:03 269 3 gusting 12 27.2
2020-Aug-05 12:00 280 2 gusting 10 27.8
2020-Aug-05 11:54 305 3 gusting 10 27.2
2020-Aug-05 11:48 291 3 gusting 9 26.7
2020-Aug-05 11:45 298 3 gusting 12 26.7
2020-Aug-05 11:39 268 2 gusting 12 25.6
2020-Aug-05 11:33 251 4 gusting 9 25.6
2020-Aug-05 11:30 245 1 gusting 9 25.6
2020-Aug-05 11:24 250 3 gusting 9 25.6
2020-Aug-05 11:18 274 2 gusting 8 25.0
2020-Aug-05 11:15 305 1 gusting 8 24.4
2020-Aug-05 11:09 275 1 gusting 8 24.4
2020-Aug-05 11:03 263 3 gusting 7 25.0
2020-Aug-05 11:00 266 3 gusting 7 25.0
2020-Aug-05 10:54 264 3 gusting 7 23.9
2020-Aug-05 10:48 281 1 gusting 7 23.9
2020-Aug-05 10:45 297 3 gusting 10 23.9
2020-Aug-05 10:39 296 1 gusting 10 22.8
2020-Aug-05 10:33 240 1 gusting 6 22.2
2020-Aug-05 10:30 232 1 gusting 7 21.7
2020-Aug-05 10:24 217 2 gusting 8 21.7
2020-Aug-05 10:18 202 1 gusting 8 22.8
2020-Aug-05 10:15 195 3 gusting 8 23.3
2020-Aug-05 10:09 224 1 gusting 3 24.4
2020-Aug-05 10:03 160 0 gusting 3 25.0
2020-Aug-05 10:00 146 0 gusting 3 25.6
2020-Aug-05 09:54 181 1 gusting 3 25.0
2020-Aug-05 09:48 207 23.9
2020-Aug-05 09:45 216 23.3
2020-Aug-05 09:39 213 1 gusting 4 23.3
2020-Aug-05 09:33 220 1 gusting 3 22.8
2020-Aug-05 09:30 206 0 gusting 3 22.2
2020-Aug-05 09:24 195 0 gusting 3 21.7
2020-Aug-05 09:18 217 1 gusting 5 20.6
2020-Aug-05 09:15 218 20.6
2020-Aug-05 09:09 238 1 gusting 7 20.6
2020-Aug-05 09:03 222 2 gusting 7 20.6
2020-Aug-05 09:00 209 2 gusting 6 20.6
2020-Aug-05 08:51 229 2 gusting 6 20.6
2020-Aug-05 08:48 229 1 gusting 4 20.0
2020-Aug-05 08:45 225 1 gusting 4 20.0
2020-Aug-05 08:39 229 1 gusting 4 20.0
2020-Aug-05 08:33 237 1 gusting 3 20.0
2020-Aug-05 08:30 242 1 gusting 6 19.4
2020-Aug-05 08:24 223 2 gusting 6 19.4
2020-Aug-05 08:18 227 0 gusting 6 19.4
2020-Aug-05 08:15 232 1 gusting 6 19.4
2020-Aug-05 08:09 227 1 gusting 6 18.9
2020-Aug-05 08:03 257 1 gusting 6 18.9
2020-Aug-05 08:00 260 2 gusting 6 18.9
2020-Aug-05 07:54 225 1 gusting 6 18.9
2020-Aug-05 07:48 236 1 gusting 9 18.9
2020-Aug-05 07:45 257 1 gusting 9 18.9
2020-Aug-05 07:39 230 5 gusting 13 18.3
2020-Aug-05 07:33 235 6 gusting 13 17.8
2020-Aug-05 07:30 224 6 gusting 13 17.8
2020-Aug-05 07:24 201 3 gusting 14 17.8
2020-Aug-05 07:18 232 3 gusting 14 17.2
2020-Aug-05 07:15 253 5 gusting 14 17.2
2020-Aug-05 07:09 239 3 gusting 11 17.2
2020-Aug-05 07:03 205 1 gusting 11 17.8
2020-Aug-05 07:00 191 4 gusting 11 17.8
2020-Aug-05 06:54 196 3 gusting 11 17.8
2020-Aug-05 06:48 196 2 gusting 11 18.3
2020-Aug-05 06:45 211 1 gusting 9 18.3
2020-Aug-05 06:39 214 5 gusting 9 18.3
2020-Aug-05 06:33 193 5 gusting 10 18.9
2020-Aug-05 06:30 225 4 gusting 13 18.9
2020-Aug-05 06:24 255 4 gusting 15 19.4
2020-Aug-05 06:18 192 7 gusting 16 19.4
2020-Aug-05 06:15 159 4 gusting 16 19.4
2020-Aug-05 06:09 182 3 gusting 14 19.4
2020-Aug-05 06:03 241 3 gusting 14 19.4
2020-Aug-05 06:00 232 6 gusting 14 18.9
2020-Aug-05 05:54 217 4 gusting 17 18.9
2020-Aug-05 05:48 221 6 gusting 17 18.9
2020-Aug-05 05:45 222 7 gusting 17 18.9
2020-Aug-05 05:39 232 4 gusting 14 18.9
2020-Aug-05 05:33 280 3 gusting 16 18.9
2020-Aug-05 05:30 235 4 gusting 16 18.3
2020-Aug-05 05:24 187 8 gusting 16 18.3
2020-Aug-05 05:18 208 6 gusting 14 18.3
2020-Aug-05 05:15 205 4 gusting 14 18.3
2020-Aug-05 05:09 191 6 gusting 14 18.3
2020-Aug-05 05:03 338 6 gusting 13 18.3
2020-Aug-05 04:57 037 4 gusting 13 18.3
2020-Aug-05 04:54 148 2 gusting 14 18.3
2020-Aug-05 04:48 189 5 gusting 16 18.3
2020-Aug-05 04:45 201 5 gusting 16 18.3
2020-Aug-05 04:39 252 4 gusting 16 18.3
2020-Aug-05 04:33 206 3 gusting 13 18.3
2020-Aug-05 04:30 207 4 gusting 13 18.3
2020-Aug-05 04:24 240 5 gusting 13 18.3
2020-Aug-05 04:18 332 3 gusting 12 18.3
2020-Aug-05 04:15 227 4 gusting 13 18.3
2020-Aug-05 04:09 174 3 gusting 13 18.3
2020-Aug-05 04:03 169 6 gusting 13 18.3
2020-Aug-05 04:00 173 4 gusting 13 18.3
2020-Aug-05 03:54 184 3 gusting 10 17.8
2020-Aug-05 03:48 190 3 gusting 8 17.8
2020-Aug-05 03:45 222 3 gusting 6 17.8
2020-Aug-05 03:39 219 2 gusting 6 17.8
2020-Aug-05 03:33 232 1 gusting 7 17.8
2020-Aug-05 03:30 207 2 gusting 7 17.8
2020-Aug-05 03:24 193 2 gusting 8 17.8
2020-Aug-05 03:18 222 4 gusting 7 17.8
2020-Aug-05 03:15 224 3 gusting 9 17.8
2020-Aug-05 03:09 242 2 gusting 9 17.8
2020-Aug-05 03:03 286 3 gusting 9 17.8
2020-Aug-05 03:00 269 2 gusting 8 17.8
2020-Aug-05 02:54 212 0 gusting 13 17.8
2020-Aug-05 02:48 212 1 gusting 13 17.8
2020-Aug-05 02:45 214 2 gusting 12 17.8
2020-Aug-05 02:39 205 4 gusting 12 17.8
2020-Aug-05 02:33 209 5 gusting 9 17.8
2020-Aug-05 02:30 230 3 gusting 9 17.8
2020-Aug-05 02:24 249 3 gusting 9 17.8
2020-Aug-05 02:18 246 3 gusting 9 18.3
2020-Aug-05 02:15 224 2 gusting 9 17.8
2020-Aug-05 02:09 208 3 gusting 9 17.8
2020-Aug-05 02:03 226 2 gusting 8 18.3
2020-Aug-05 02:00 242 2 gusting 8 17.8
2020-Aug-05 01:54 231 1 gusting 8 18.3
2020-Aug-05 01:48 273 3 gusting 8 17.8
2020-Aug-05 01:45 259 3 gusting 6 17.8
2020-Aug-05 01:39 144 1 gusting 9 17.8
2020-Aug-05 01:33 145 3 gusting 9 17.8
2020-Aug-05 01:30 172 3 gusting 9 18.3
2020-Aug-05 01:24 202 3 gusting 6 18.3
2020-Aug-05 01:18 235 1 gusting 8 18.3
2020-Aug-05 01:15 309 2 gusting 9 18.3
2020-Aug-05 01:09 232 3 gusting 9 18.3
2020-Aug-05 01:03 232 3 gusting 9 18.3
2020-Aug-05 01:00 234 1 gusting 9 18.3
2020-Aug-05 00:54 267 3 gusting 9 18.3
2020-Aug-05 00:48 302 4 gusting 11 18.3
2020-Aug-05 00:45 270 3 gusting 11 18.3
2020-Aug-05 00:39 207 5 gusting 9 18.3
2020-Aug-05 00:33 197 3 gusting 9 18.3
2020-Aug-05 00:30 203 4 gusting 9 18.3
2020-Aug-05 00:24 215 3 gusting 13 18.3
2020-Aug-05 00:18 213 6 gusting 13 18.3
2020-Aug-05 00:15 187 3 gusting 11 18.3
2020-Aug-05 00:09 204 3 gusting 9 18.3
2020-Aug-05 00:03 236 1 gusting 9 18.3
2020-Aug-05 00:00 186 1 gusting 9 18.3
2020-Aug-04 23:54 124 1 gusting 9 18.9
2020-Aug-04 23:48 065 1 gusting 7 18.9
2020-Aug-04 23:45 041 1 gusting 8 18.3
2020-Aug-04 23:39 263 2 gusting 9 18.9
2020-Aug-04 23:33 205 4 gusting 9 18.3
2020-Aug-04 23:27 176 5 gusting 8 18.3
2020-Aug-04 23:24 189 3 gusting 7 18.3
2020-Aug-04 23:18 214 1 gusting 6 18.3
2020-Aug-04 23:15 218 0 gusting 5 18.3
2020-Aug-04 23:09 247 0 gusting 6 18.9
2020-Aug-04 23:03 235 0 gusting 8 18.3
2020-Aug-04 23:00 207 1 gusting 8 18.9
2020-Aug-04 22:54 213 2 gusting 8 18.3
2020-Aug-04 22:48 239 3 gusting 7 18.9
2020-Aug-04 22:45 203 0 gusting 11 18.9
2020-Aug-04 22:39 247 3 gusting 11 18.9
2020-Aug-04 22:33 253 3 gusting 9 18.9
2020-Aug-04 22:30 222 3 gusting 9 18.9
2020-Aug-04 22:24 198 3 gusting 8 18.9
2020-Aug-04 22:18 225 2 gusting 6 18.9
2020-Aug-04 22:15 266 3 gusting 9 18.9
2020-Aug-04 22:09 201 1 gusting 9 18.9
2020-Aug-04 22:03 188 1 gusting 7 18.9
2020-Aug-04 22:00 194 1 gusting 7 18.9
2020-Aug-04 21:54 204 3 gusting 7 18.9
2020-Aug-04 21:48 215 2 gusting 7 19.4
2020-Aug-04 21:45 208 3 gusting 7 19.4
2020-Aug-04 21:39 213 2 gusting 7 19.4
2020-Aug-04 21:33 210 2 gusting 9 18.9
2020-Aug-04 21:30 213 1 gusting 9 18.9
2020-Aug-04 21:24 203 1 gusting 9 18.9
2020-Aug-04 21:18 194 4 gusting 7 18.9
2020-Aug-04 21:15 212 3 gusting 7 18.9
2020-Aug-04 21:09 220 2 gusting 5 18.9
2020-Aug-04 21:03 234 1 gusting 6 18.9
2020-Aug-04 21:00 215 1 gusting 6 18.9
2020-Aug-04 20:54 208 1 gusting 5 18.9
2020-Aug-04 20:48 211 1 gusting 5 18.9
2020-Aug-04 20:45 225 1 gusting 5 18.9
2020-Aug-04 20:39 238 1 gusting 4 18.9
2020-Aug-04 20:33 206 1 gusting 7 18.9
2020-Aug-04 20:30 215 0 gusting 7 18.3
2020-Aug-04 20:24 218 1 gusting 7 18.3
2020-Aug-04 20:18 240 2 gusting 6 18.3
2020-Aug-04 20:15 240 1 gusting 6 18.9
2020-Aug-04 20:09 211 1 gusting 7 18.9
2020-Aug-04 20:03 207 3 gusting 9 18.9
2020-Aug-04 20:00 210 3 gusting 9 18.9
2020-Aug-04 19:54 221 1 gusting 7 18.9
2020-Aug-04 19:48 201 3 gusting 7 18.9
2020-Aug-04 19:45 202 1 gusting 8 18.9
2020-Aug-04 19:39 218 1 gusting 8 18.9
2020-Aug-04 19:33 236 1 gusting 9 18.9
2020-Aug-04 19:30 199 1 gusting 9 18.9
2020-Aug-04 19:24 196 2 gusting 8 18.9
2020-Aug-04 19:18 238 0 gusting 6 18.9
2020-Aug-04 19:15 225 3 gusting 6 18.9
2020-Aug-04 19:06 227 0 gusting 3 18.9
2020-Aug-04 19:03 245 0 gusting 2 18.9
2020-Aug-04 19:00 266 18.9
2020-Aug-04 18:54 242 0 gusting 6 18.9
2020-Aug-04 18:48 208 18.9
2020-Aug-04 18:45 196 1 gusting 6 18.9
2020-Aug-04 18:39 163 0 gusting 3 18.9
2020-Aug-04 18:33 196 1 gusting 3 19.4
2020-Aug-04 18:30 195 19.4
2020-Aug-04 18:24 190 1 gusting 6 19.4
2020-Aug-04 18:18 193 1 gusting 6 19.4
2020-Aug-04 18:15 211 1 gusting 6 19.4
2020-Aug-04 18:09 225 1 gusting 5 20.0
2020-Aug-04 18:03 204 1 gusting 6 20.0
2020-Aug-04 18:00 184 1 gusting 6 20.0
2020-Aug-04 17:54 196 1 gusting 5 20.6
2020-Aug-04 17:48 205 1 gusting 5 20.6
2020-Aug-04 17:45 205 1 gusting 6 20.6
2020-Aug-04 17:39 226 1 gusting 7 21.1
2020-Aug-04 17:33 230 1 gusting 7 21.7
2020-Aug-04 17:30 229 1 gusting 9 21.7
2020-Aug-04 17:24 221 1 gusting 9 21.7
2020-Aug-04 17:18 243 2 gusting 7 21.7
2020-Aug-04 17:15 227 3 gusting 7 22.2
2020-Aug-04 17:09 203 2 gusting 6 22.2
2020-Aug-04 17:03 176 1 gusting 6 22.2
2020-Aug-04 17:00 187 1 gusting 6 21.7
2020-Aug-04 16:54 171 1 gusting 6 21.7
2020-Aug-04 16:48 176 2 gusting 6 21.7
2020-Aug-04 16:45 183 1 gusting 6 22.2
2020-Aug-04 16:39 183 1 gusting 8 22.2
2020-Aug-04 16:33 199 3 gusting 9 21.7
2020-Aug-04 16:30 218 1 gusting 9 21.1
2020-Aug-04 16:24 230 3 gusting 9 20.6
2020-Aug-04 16:18 237 1 gusting 6 20.0
2020-Aug-04 16:15 234 2 gusting 6 19.4
2020-Aug-04 16:09 226 2 gusting 6 18.9
2020-Aug-04 16:03 224 1 gusting 3 18.9
2020-Aug-04 16:00 218 1 gusting 3 18.9
2020-Aug-04 15:54 223 1 gusting 2 18.9
2020-Aug-04 15:48 220 0 gusting 3 18.9
2020-Aug-04 15:45 209 0 gusting 3 18.3
2020-Aug-04 15:39 159 1 gusting 3 18.3
2020-Aug-04 15:33 123 0 gusting 3 18.3
2020-Aug-04 15:30 152 0 gusting 3 18.3
2020-Aug-04 15:24 150 18.3
2020-Aug-04 15:18 147 0 gusting 3 18.3
2020-Aug-04 15:15 178 1 gusting 3 17.8
2020-Aug-04 15:09 239 17.8
2020-Aug-04 15:03 254 17.8
2020-Aug-04 14:57 216 17.8
2020-Aug-04 14:54 211 17.8
2020-Aug-04 14:48 199 17.2
2020-Aug-04 14:45 232 0 gusting 3 17.2
2020-Aug-04 14:39 271 1 gusting 4 17.2
2020-Aug-04 14:33 279 1 gusting 4 17.2
2020-Aug-04 14:30 266 1 gusting 3 17.2
2020-Aug-04 14:24 182 0 gusting 3 17.2
2020-Aug-04 14:18 173 0 gusting 4 17.2
2020-Aug-04 14:15 274 1 gusting 6 17.2
2020-Aug-04 14:09 281 1 gusting 6 16.7
2020-Aug-04 14:03 289 2 gusting 8 16.7
2020-Aug-04 13:57 282 4 gusting 8 16.7
2020-Aug-04 13:54 285 1 gusting 8 16.7
2020-Aug-04 13:48 270 1 gusting 9 16.7
2020-Aug-04 13:45 273 1 gusting 9 16.7
2020-Aug-04 13:39 237 1 gusting 15 16.7
2020-Aug-04 13:33 282 2 gusting 15 16.7
2020-Aug-04 13:30 276 7 gusting 15 17.2
2020-Aug-04 13:24 256 3 gusting 21 17.2
2020-Aug-04 13:18 292 5 gusting 21 18.3
2020-Aug-04 13:15 280 6 gusting 21 18.9
2020-Aug-04 13:06 152 3 gusting 24 20.6
2020-Aug-04 13:03 182 6 gusting 24 21.1
2020-Aug-04 13:00 211 6 gusting 24 21.7
2020-Aug-04 12:54 245 6 gusting 14 22.8
2020-Aug-04 12:48 279 5 gusting 14 23.3
2020-Aug-04 12:45 277 6 gusting 14 24.4
2020-Aug-04 12:39 299 2 gusting 8 23.9
2020-Aug-04 12:33 323 3 gusting 6 23.9
2020-Aug-04 12:30 321 3 gusting 6 23.9
2020-Aug-04 12:24 274 1 gusting 9 23.3
2020-Aug-04 12:18 251 3 gusting 13 23.3
2020-Aug-04 12:15 248 2 gusting 13 22.8
2020-Aug-04 12:09 244 6 gusting 21 22.2
2020-Aug-04 12:03 227 9 gusting 21 22.2
2020-Aug-04 12:00 221 6 gusting 16 23.3
2020-Aug-04 11:54 258 6 gusting 16 25.6
2020-Aug-04 11:48 337 4 gusting 13 25.6
2020-Aug-04 11:45 339 4 gusting 14 26.1
2020-Aug-04 11:39 329 6 gusting 17 26.1
2020-Aug-04 11:33 332 9 gusting 17 26.7
2020-Aug-04 11:30 337 6 gusting 14 26.7
2020-Aug-04 11:24 339 6 gusting 13 27.2
2020-Aug-04 11:18 340 6 gusting 13 27.8
2020-Aug-04 11:15 333 6 gusting 13 28.3
2020-Aug-04 11:09 334 4 gusting 9 28.3
2020-Aug-04 11:03 344 5 gusting 6 29.4
2020-Aug-04 11:00 339 3 gusting 7 29.4
2020-Aug-04 10:54 345 3 gusting 7 30.0
2020-Aug-04 10:48 337 4 gusting 7 29.4
2020-Aug-04 10:42 325 3 gusting 9 28.9
2020-Aug-04 10:39 323 3 gusting 11 28.9
2020-Aug-04 10:33 338 2 gusting 11 28.3
2020-Aug-04 10:30 339 6 gusting 11 28.3
2020-Aug-04 10:24 341 4 gusting 7 27.8
2020-Aug-04 10:18 354 4 gusting 9 27.2
2020-Aug-04 10:15 357 5 gusting 9 27.2
2020-Aug-04 10:09 352 5 gusting 9 28.9
2020-Aug-04 10:03 337 5 gusting 9 28.3
2020-Aug-04 10:00 323 5 gusting 10 28.3
2020-Aug-04 09:54 321 3 gusting 10 28.3
2020-Aug-04 09:48 335 4 gusting 11 28.3
2020-Aug-04 09:45 342 4 gusting 11 28.3
2020-Aug-04 09:39 322 3 gusting 11 27.8
2020-Aug-04 09:33 321 5 gusting 9 27.8
2020-Aug-04 09:30 328 3 gusting 9 27.8
2020-Aug-04 09:24 330 4 gusting 9 29.4
2020-Aug-04 09:18 326 3 gusting 9 28.9
2020-Aug-04 09:15 310 1 gusting 8 28.9
2020-Aug-04 09:09 307 5 gusting 8 28.3
2020-Aug-04 09:03 322 2 gusting 9 27.8
2020-Aug-04 09:00 328 5 gusting 9 27.8
2020-Aug-04 08:51 309 2 gusting 8 27.2
2020-Aug-04 08:45 311 1 gusting 6 27.8
2020-Aug-04 08:39 307 2 gusting 6 28.3
2020-Aug-04 08:33 265 1 gusting 6 29.4
2020-Aug-04 08:27 184 0 gusting 6 30.0
2020-Aug-04 08:24 178 1 gusting 6 30.6
2020-Aug-04 08:18 167 2 gusting 7 31.7
2020-Aug-04 08:15 157 3 gusting 7 32.2
2020-Aug-04 08:09 148 2 gusting 5 32.8
2020-Aug-04 08:03 177 1 gusting 5 32.2
2020-Aug-04 08:00 209 0 gusting 6 31.7
2020-Aug-04 07:54 233 1 gusting 7 31.7
2020-Aug-04 07:48 238 1 gusting 6 31.7
2020-Aug-04 07:45 217 3 gusting 6 31.7
2020-Aug-04 07:39 195 2 gusting 6 31.7
2020-Aug-04 07:33 132 1 gusting 4 32.2
2020-Aug-04 07:30 126 1 gusting 3 32.2
2020-Aug-04 07:24 166 31.1
2020-Aug-04 07:18 173 0 gusting 3 31.7
2020-Aug-04 07:15 185 1 gusting 3 31.7
2020-Aug-04 07:09 296 30.6
2020-Aug-04 07:03 317 0 gusting 3 30.6
2020-Aug-04 07:00 304 1 gusting 5 30.0
2020-Aug-04 06:54 296 0 gusting 5 29.4
2020-Aug-04 06:48 313 0 gusting 4 29.4
2020-Aug-04 06:45 320 1 gusting 5 28.9
2020-Aug-04 06:39 298 0 gusting 5 28.3
2020-Aug-04 06:33 302 1 gusting 5 28.3
2020-Aug-04 06:30 318 1 gusting 4 27.8
2020-Aug-04 06:24 331 1 gusting 4 27.2
2020-Aug-04 06:18 303 1 gusting 4 27.8
2020-Aug-04 06:15 269 1 gusting 4 27.8
2020-Aug-04 06:09 225 1 gusting 7 26.7
2020-Aug-04 06:03 228 1 gusting 7 26.7
2020-Aug-04 06:00 205 1 gusting 7 26.7
2020-Aug-04 05:54 225 2 gusting 5 26.1
2020-Aug-04 05:48 261 0 gusting 6 25.6
2020-Aug-04 05:45 241 2 gusting 6 25.6
2020-Aug-04 05:39 216 1 gusting 6 25.6
2020-Aug-04 05:33 201 3 gusting 6 25.6
2020-Aug-04 05:30 176 1 gusting 5 25.0
2020-Aug-04 05:24 202 1 gusting 7 24.4
2020-Aug-04 05:18 272 3 gusting 7 23.9
2020-Aug-04 05:15 239 1 gusting 11 23.3
2020-Aug-04 05:09 215 2 gusting 11 23.9
2020-Aug-04 05:03 201 3 gusting 10 24.4
2020-Aug-04 04:57 165 1 gusting 9 25.0
2020-Aug-04 04:54 122 3 gusting 11 25.0
2020-Aug-04 04:48 143 5 gusting 11 25.0
2020-Aug-04 04:45 134 3 gusting 11 25.0
2020-Aug-04 04:39 135 3 gusting 11 24.4
2020-Aug-04 04:33 203 3 gusting 11 24.4
2020-Aug-04 04:30 206 4 gusting 13 24.4
2020-Aug-04 04:24 163 3 gusting 14 24.4
2020-Aug-04 04:18 148 4 gusting 15 24.4
2020-Aug-04 04:15 135 5 gusting 15 24.4
2020-Aug-04 04:09 185 5 gusting 14 24.4
2020-Aug-04 04:03 165 6 gusting 14 24.4
2020-Aug-04 04:00 152 4 gusting 17 23.9
2020-Aug-04 03:54 202 4 gusting 17 23.9
2020-Aug-04 03:48 221 8 gusting 13 23.9
2020-Aug-04 03:45 239 3 gusting 12 23.3
2020-Aug-04 03:39 214 4 gusting 11 22.8
2020-Aug-04 03:33 215 6 gusting 13 22.8
2020-Aug-04 03:30 212 5 gusting 13 22.8
2020-Aug-04 03:24 228 3 gusting 11 22.8
2020-Aug-04 03:18 231 3 gusting 11 22.8
2020-Aug-04 03:12 302 4 gusting 10 22.8
2020-Aug-04 03:09 293 3 gusting 8 22.8
2020-Aug-04 03:03 286 5 gusting 9 22.8
2020-Aug-04 03:00 237 3 gusting 10 22.8
2020-Aug-04 02:54 223 3 gusting 11 22.8
2020-Aug-04 02:48 201 3 gusting 11 22.8
2020-Aug-04 02:45 187 3 gusting 11 22.8
2020-Aug-04 02:39 163 3 gusting 12 22.8
2020-Aug-04 02:33 131 3 gusting 12 23.3
2020-Aug-04 02:30 152 6 gusting 13 23.3
2020-Aug-04 02:24 169 3 gusting 13 23.3
2020-Aug-04 02:18 201 4 gusting 10 23.3
2020-Aug-04 02:15 190 5 gusting 9 23.3
2020-Aug-04 02:09 142 3 gusting 12 23.3
2020-Aug-04 02:03 190 3 gusting 13 23.3
2020-Aug-04 02:00 279 4 gusting 13 23.3
2020-Aug-04 01:54 281 3 gusting 11 23.3
2020-Aug-04 01:48 287 3 gusting 10 23.3
2020-Aug-04 01:45 297 3 gusting 10 23.3
2020-Aug-04 01:39 257 2 gusting 8 23.3
2020-Aug-04 01:33 211 2 gusting 8 23.3
2020-Aug-04 01:30 199 3 gusting 8 23.9
2020-Aug-04 01:24 226 3 gusting 10 23.9
2020-Aug-04 01:18 216 3 gusting 6 23.3
2020-Aug-04 01:15 234 2 gusting 6 23.3
2020-Aug-04 01:09 184 1 gusting 6 23.3
2020-Aug-04 01:03 151 2 gusting 6 23.3
2020-Aug-04 01:00 266 1 gusting 6 23.9
2020-Aug-04 00:54 119 1 gusting 6 23.3
2020-Aug-04 00:48 176 1 gusting 7 23.3
2020-Aug-04 00:45 209 2 gusting 7 23.3
2020-Aug-04 00:39 253 0 gusting 6 23.3
2020-Aug-04 00:33 272 1 gusting 6 23.3
2020-Aug-04 00:30 262 1 gusting 6 23.3
2020-Aug-04 00:24 165 1 gusting 6 23.3
2020-Aug-04 00:18 148 1 gusting 7 23.3
2020-Aug-04 00:15 159 2 gusting 7 22.8
2020-Aug-04 00:09 188 3 gusting 7 22.8
2020-Aug-04 00:03 128 1 gusting 6 22.8
2020-Aug-04 00:00 122 1 gusting 6 22.8
2020-Aug-03 23:54 167 1 gusting 6 22.8
2020-Aug-03 23:48 203 0 gusting 5 22.8
2020-Aug-03 23:45 176 1 gusting 6 22.8
2020-Aug-03 23:39 134 2 gusting 6 22.8
2020-Aug-03 23:33 114 3 gusting 6 22.8
2020-Aug-03 23:30 117 1 gusting 5 22.8
2020-Aug-03 23:24 142 1 gusting 6 22.8
2020-Aug-03 23:18 148 2 gusting 6 22.8
2020-Aug-03 23:15 143 1 gusting 6 22.8
2020-Aug-03 23:09 153 1 gusting 6 22.8
2020-Aug-03 23:03 159 1 gusting 6 22.8
2020-Aug-03 23:00 139 1 gusting 6 22.8
2020-Aug-03 22:54 097 0 gusting 2 22.8
2020-Aug-03 22:48 071 0 gusting 6 22.8
2020-Aug-03 22:45 042 0 gusting 8 22.8
2020-Aug-03 22:39 083 1 gusting 9 22.8
2020-Aug-03 22:33 167 2 gusting 10 22.8
2020-Aug-03 22:30 175 2 gusting 10 22.8
2020-Aug-03 22:24 220 1 gusting 2 22.8
2020-Aug-03 22:18 195 0 gusting 2 22.2
2020-Aug-03 22:15 188 22.2
2020-Aug-03 22:09 231 0 gusting 2 22.2
2020-Aug-03 22:03 314 21.7
2020-Aug-03 22:00 314 21.7
2020-Aug-03 21:54 314 1 gusting 3 21.7
2020-Aug-03 21:48 231 0 gusting 1 21.7
2020-Aug-03 21:45 174 1 gusting 1 21.7
2020-Aug-03 21:39 182 0 gusting 1 21.7
2020-Aug-03 21:33 209 0 gusting 1 21.7
2020-Aug-03 21:30 235 21.7
2020-Aug-03 21:24 306 21.7
2020-Aug-03 21:18 325 21.7
2020-Aug-03 21:15 339 0 gusting 1 21.7
2020-Aug-03 21:09 090 21.7
2020-Aug-03 21:03 090 21.7
2020-Aug-03 21:00 096 21.7
2020-Aug-03 20:54 126 21.7
2020-Aug-03 20:48 031 21.7
2020-Aug-03 20:45 355 0 gusting 1 21.7
2020-Aug-03 20:39 001 21.7
2020-Aug-03 20:33 001 21.1
2020-Aug-03 20:30 001 0 gusting 3 21.1
2020-Aug-03 20:24 001 0 gusting 4 21.7
2020-Aug-03 20:18 040 0 gusting 4 21.7
2020-Aug-03 20:15 069 1 gusting 4 21.7
2020-Aug-03 20:09 228 21.7
2020-Aug-03 20:03 240 2 gusting 9 21.7
2020-Aug-03 20:00 256 3 gusting 9 21.1
2020-Aug-03 19:54 334 5 gusting 14 21.7
2020-Aug-03 19:48 287 6 gusting 14 21.7
2020-Aug-03 19:45 206 6 gusting 14 21.7
2020-Aug-03 19:39 217 4 gusting 14 21.7
2020-Aug-03 19:33 253 5 gusting 13 21.7
2020-Aug-03 19:30 267 3 gusting 13 21.7
2020-Aug-03 19:24 239 3 gusting 18 21.1
2020-Aug-03 19:18 190 3 gusting 19 21.7
2020-Aug-03 19:15 221 2 gusting 20 21.7
2020-Aug-03 19:09 286 10 gusting 22 22.2
2020-Aug-03 19:03 256 10 gusting 16 23.9
2020-Aug-03 19:00 230 5 gusting 13 23.9
2020-Aug-03 18:54 267 1 gusting 4 23.9
2020-Aug-03 18:48 280 1 gusting 4 23.9
2020-Aug-03 18:45 287 1 gusting 4 23.9
2020-Aug-03 18:39 319 1 gusting 5 23.9
2020-Aug-03 18:33 346 1 gusting 3 23.9
2020-Aug-03 18:30 351 1 gusting 3 23.9
2020-Aug-03 18:24 328 0 gusting 3 23.9
2020-Aug-03 18:18 316 1 gusting 3 23.9
2020-Aug-03 18:15 309 1 gusting 3 23.9
2020-Aug-03 18:09 308 0 gusting 4 23.9
2020-Aug-03 18:03 310 2 gusting 4 23.9
2020-Aug-03 18:00 296 1 gusting 3 23.3
2020-Aug-03 17:54 288 1 gusting 3 23.3
2020-Aug-03 17:48 292 0 gusting 3 23.3
2020-Aug-03 17:45 286 0 gusting 3 23.3
2020-Aug-03 17:39 263 1 gusting 5 23.9
2020-Aug-03 17:33 286 0 gusting 6 23.9
2020-Aug-03 17:30 299 1 gusting 6 23.9
2020-Aug-03 17:24 304 3 gusting 6 23.9
2020-Aug-03 17:18 269 24.4
2020-Aug-03 17:15 256 1 gusting 7 24.4
2020-Aug-03 17:09 257 2 gusting 7 24.4
2020-Aug-03 17:03 251 0 gusting 6 24.4
2020-Aug-03 17:00 246 2 gusting 6 24.4
2020-Aug-03 16:54 249 1 gusting 6 25.0
2020-Aug-03 16:48 306 2 gusting 10 25.6
2020-Aug-03 16:45 305 2 gusting 10 25.6
2020-Aug-03 16:39 249 3 gusting 7 27.2
2020-Aug-03 16:33 191 0 gusting 3 28.3
2020-Aug-03 16:30 145 0 gusting 2 28.3
2020-Aug-03 16:24 135 27.8
2020-Aug-03 16:18 124 27.2
2020-Aug-03 16:15 104 27.2
2020-Aug-03 16:09 008 0 gusting 3 26.7
2020-Aug-03 16:03 326 0 gusting 3 26.7
2020-Aug-03 16:00 129 1 gusting 2 26.7
2020-Aug-03 15:54 036 25.0
2020-Aug-03 15:48 063 1 gusting 10 24.4
2020-Aug-03 15:45 073 3 gusting 10 23.9
2020-Aug-03 15:39 086 6 gusting 9 24.4
2020-Aug-03 15:33 100 1 gusting 6 24.4
2020-Aug-03 15:30 036 3 gusting 6 24.4
2020-Aug-03 15:24 357 0 gusting 6 24.4
2020-Aug-03 15:18 053 1 gusting 6 24.4
2020-Aug-03 15:15 080 3 gusting 6 24.4
2020-Aug-03 15:09 143 2 gusting 6 24.4
2020-Aug-03 15:03 083 1 gusting 6 23.3
2020-Aug-03 15:00 077 0 gusting 14 23.3